����������;��������(kWh)
2017-05-01 00:00;74,4
2017-05-01 00:15;74,3
2017-05-01 00:30;76,2
2017-05-01 00:45;73,45
2017-05-01 01:00;74,45
2017-05-01 01:15;75,5
2017-05-01 01:30;74,6
2017-05-01 01:45;73,9
2017-05-01 02:00;74,6
2017-05-01 02:15;73,2
2017-05-01 02:30;73,3
2017-05-01 02:45;76,95
2017-05-01 03:00;75,15
2017-05-01 03:15;75,6
2017-05-01 03:30;75,3
2017-05-01 03:45;75,9
2017-05-01 04:00;72,7
2017-05-01 04:15;70,15
2017-05-01 04:30;71,5
2017-05-01 04:45;69,85
2017-05-01 05:00;69,85
2017-05-01 05:15;70,45
2017-05-01 05:30;70,3
2017-05-01 05:45;72,4
2017-05-01 06:00;78,1
2017-05-01 06:15;75,95
2017-05-01 06:30;75,95
2017-05-01 06:45;74,05
2017-05-01 07:00;71,45
2017-05-01 07:15;68,2
2017-05-01 07:30;67,35
2017-05-01 07:45;65,85
2017-05-01 08:00;66,6
2017-05-01 08:15;65,2
2017-05-01 08:30;62,05
2017-05-01 08:45;62,9
2017-05-01 09:00;66,35
2017-05-01 09:15;65
2017-05-01 09:30;65,2
2017-05-01 09:45;64,95
2017-05-01 10:00;65,35
2017-05-01 10:15;65,65
2017-05-01 10:30;66,05
2017-05-01 10:45;67,6
2017-05-01 11:00;71,95
2017-05-01 11:15;64,7
2017-05-01 11:30;65,25
2017-05-01 11:45;63,7
2017-05-01 12:00;65,75
2017-05-01 12:15;67,75
2017-05-01 12:30;66,8
2017-05-01 12:45;67,9
2017-05-01 13:00;70,4
2017-05-01 13:15;73,7
2017-05-01 13:30;70,55
2017-05-01 13:45;69,4
2017-05-01 14:00;68,85
2017-05-01 14:15;69,4
2017-05-01 14:30;72,65
2017-05-01 14:45;75
2017-05-01 15:00;73,35
2017-05-01 15:15;71,25
2017-05-01 15:30;70,35
2017-05-01 15:45;66,5
2017-05-01 16:00;65,1
2017-05-01 16:15;68
2017-05-01 16:30;65,35
2017-05-01 16:45;73,45
2017-05-01 17:00;75,45
2017-05-01 17:15;70,95
2017-05-01 17:30;72,1
2017-05-01 17:45;74,45
2017-05-01 18:00;73,5
2017-05-01 18:15;73,2
2017-05-01 18:30;75,5
2017-05-01 18:45;72,35
2017-05-01 19:00;73,3
2017-05-01 19:15;76,25
2017-05-01 19:30;73,05
2017-05-01 19:45;80,75
2017-05-01 20:00;80,3
2017-05-01 20:15;84,8
2017-05-01 20:30;86,8
2017-05-01 20:45;88,1
2017-05-01 21:00;90,05
2017-05-01 21:15;84,95
2017-05-01 21:30;87,45
2017-05-01 21:45;85,2
2017-05-01 22:00;82,7
2017-05-01 22:15;82,05
2017-05-01 22:30;81,35
2017-05-01 22:45;80,85
2017-05-01 23:00;79,6
2017-05-01 23:15;77
2017-05-01 23:30;76
2017-05-01 23:45;77,55
2017-05-02 00:00;76,1
2017-05-02 00:15;76,1
2017-05-02 00:30;72,4
2017-05-02 00:45;70,8
2017-05-02 01:00;70
2017-05-02 01:15;69,75
2017-05-02 01:30;70
2017-05-02 01:45;70,45
2017-05-02 02:00;70,25
2017-05-02 02:15;70,1
2017-05-02 02:30;70,65
2017-05-02 02:45;69,5
2017-05-02 03:00;70,05
2017-05-02 03:15;70,85
2017-05-02 03:30;70,85
2017-05-02 03:45;70,5
2017-05-02 04:00;71,65
2017-05-02 04:15;71,15
2017-05-02 04:30;70,8
2017-05-02 04:45;70,25
2017-05-02 05:00;70,4
2017-05-02 05:15;75,9
2017-05-02 05:30;74,45
2017-05-02 05:45;78,55
2017-05-02 06:00;79,3
2017-05-02 06:15;75,35
2017-05-02 06:30;73,05
2017-05-02 06:45;72,1
2017-05-02 07:00;70,7
2017-05-02 07:15;70,45
2017-05-02 07:30;71,4
2017-05-02 07:45;73,15
2017-05-02 08:00;74,15
2017-05-02 08:15;78,95
2017-05-02 08:30;82,15
2017-05-02 08:45;83,9
2017-05-02 09:00;90,25
2017-05-02 09:15;95,85
2017-05-02 09:30;100,15
2017-05-02 09:45;103,3
2017-05-02 10:00;106,7
2017-05-02 10:15;108,1
2017-05-02 10:30;113,25
2017-05-02 10:45;120,2
2017-05-02 11:00;123,5
2017-05-02 11:15;118,1
2017-05-02 11:30;119,65
2017-05-02 11:45;120,55
2017-05-02 12:00;122,65
2017-05-02 12:15;124,75
2017-05-02 12:30;127,75
2017-05-02 12:45;129,4
2017-05-02 13:00;126,25
2017-05-02 13:15;128,75
2017-05-02 13:30;131,15
2017-05-02 13:45;131,5
2017-05-02 14:00;129,3
2017-05-02 14:15;128,05
2017-05-02 14:30;124,65
2017-05-02 14:45;122,2
2017-05-02 15:00;118,7
2017-05-02 15:15;118,85
2017-05-02 15:30;116,5
2017-05-02 15:45;114,45
2017-05-02 16:00;108,5
2017-05-02 16:15;101,15
2017-05-02 16:30;100,3
2017-05-02 16:45;98,85
2017-05-02 17:00;97,65
2017-05-02 17:15;98,2
2017-05-02 17:30;99,05
2017-05-02 17:45;98,85
2017-05-02 18:00;81,25
2017-05-02 18:15;53,2
2017-05-02 18:30;94,6
2017-05-02 18:45;95,75
2017-05-02 19:00;91,7
2017-05-02 19:15;95
2017-05-02 19:30;89,4
2017-05-02 19:45;90
2017-05-02 20:00;91,1
2017-05-02 20:15;92
2017-05-02 20:30;90,55
2017-05-02 20:45;89,45
2017-05-02 21:00;90,6
2017-05-02 21:15;83,95
2017-05-02 21:30;83,5
2017-05-02 21:45;85,8
2017-05-02 22:00;81,15
2017-05-02 22:15;79,8
2017-05-02 22:30;80,55
2017-05-02 22:45;78,95
2017-05-02 23:00;79,3
2017-05-02 23:15;77,65
2017-05-02 23:30;75,35
2017-05-02 23:45;78,2
2017-05-03 00:00;78,8
2017-05-03 00:15;77,4
2017-05-03 00:30;76,95
2017-05-03 00:45;75,3
2017-05-03 01:00;74,5
2017-05-03 01:15;75,65
2017-05-03 01:30;73,35
2017-05-03 01:45;71,95
2017-05-03 02:00;74,7
2017-05-03 02:15;71,75
2017-05-03 02:30;72,4
2017-05-03 02:45;74,35
2017-05-03 03:00;72,75
2017-05-03 03:15;74,65
2017-05-03 03:30;76,4
2017-05-03 03:45;74,4
2017-05-03 04:00;74,4
2017-05-03 04:15;75,85
2017-05-03 04:30;73,9
2017-05-03 04:45;75,35
2017-05-03 05:00;75,1
2017-05-03 05:15;81,5
2017-05-03 05:30;81,7
2017-05-03 05:45;84,4
2017-05-03 06:00;81,85
2017-05-03 06:15;79,7
2017-05-03 06:30;80,65
2017-05-03 06:45;72,5
2017-05-03 07:00;75,75
2017-05-03 07:15;73,55
2017-05-03 07:30;72,7
2017-05-03 07:45;75,9
2017-05-03 08:00;75,85
2017-05-03 08:15;75,05
2017-05-03 08:30;81,5
2017-05-03 08:45;84,75
2017-05-03 09:00;87,5
2017-05-03 09:15;92,9
2017-05-03 09:30;97,4
2017-05-03 09:45;96,55
2017-05-03 10:00;101,65
2017-05-03 10:15;108,35
2017-05-03 10:30;110,7
2017-05-03 10:45;110,8
2017-05-03 11:00;118,75
2017-05-03 11:15;118,1
2017-05-03 11:30;119,85
2017-05-03 11:45;117,35
2017-05-03 12:00;121,15
2017-05-03 12:15;122,7
2017-05-03 12:30;127,2
2017-05-03 12:45;126,65
2017-05-03 13:00;126,05
2017-05-03 13:15;126,15
2017-05-03 13:30;126,15
2017-05-03 13:45;126,2
2017-05-03 14:00;126,8
2017-05-03 14:15;121,4
2017-05-03 14:30;119,9
2017-05-03 14:45;121
2017-05-03 15:00;123,1
2017-05-03 15:15;113,5
2017-05-03 15:30;112,3
2017-05-03 15:45;112,2
2017-05-03 16:00;110,1
2017-05-03 16:15;105,4
2017-05-03 16:30;107,9
2017-05-03 16:45;107,35
2017-05-03 17:00;101,6
2017-05-03 17:15;101,05
2017-05-03 17:30;103,35
2017-05-03 17:45;100,3
2017-05-03 18:00;97,55
2017-05-03 18:15;93,45
2017-05-03 18:30;93,55
2017-05-03 18:45;94
2017-05-03 19:00;87,55
2017-05-03 19:15;88,75
2017-05-03 19:30;90,6
2017-05-03 19:45;92,35
2017-05-03 20:00;87,35
2017-05-03 20:15;91,95
2017-05-03 20:30;90,5
2017-05-03 20:45;93,4
2017-05-03 21:00;93,7
2017-05-03 21:15;89,9
2017-05-03 21:30;89,2
2017-05-03 21:45;87,9
2017-05-03 22:00;83,15
2017-05-03 22:15;82,75
2017-05-03 22:30;84,5
2017-05-03 22:45;81,5
2017-05-03 23:00;80,55
2017-05-03 23:15;79,7
2017-05-03 23:30;75,4
2017-05-03 23:45;75,25
2017-05-04 00:00;75,95
2017-05-04 00:15;76,7
2017-05-04 00:30;75,35
2017-05-04 00:45;76,15
2017-05-04 01:00;73,95
2017-05-04 01:15;72,3
2017-05-04 01:30;73,1
2017-05-04 01:45;73,05
2017-05-04 02:00;72,7
2017-05-04 02:15;71,85
2017-05-04 02:30;71,85
2017-05-04 02:45;71,55
2017-05-04 03:00;72,35
2017-05-04 03:15;76,75
2017-05-04 03:30;77,8
2017-05-04 03:45;76,35
2017-05-04 04:00;77,5
2017-05-04 04:15;76,15
2017-05-04 04:30;75,95
2017-05-04 04:45;76,8
2017-05-04 05:00;75,95
2017-05-04 05:15;82,05
2017-05-04 05:30;84,15
2017-05-04 05:45;87,75
2017-05-04 06:00;87,55
2017-05-04 06:15;87,95
2017-05-04 06:30;84,2
2017-05-04 06:45;80,9
2017-05-04 07:00;81,3
2017-05-04 07:15;79
2017-05-04 07:30;78,75
2017-05-04 07:45;83,3
2017-05-04 08:00;82,15
2017-05-04 08:15;57,45
2017-05-04 08:30;90,35
2017-05-04 08:45;88,15
2017-05-04 09:00;88,4
2017-05-04 09:15;95,05
2017-05-04 09:30;94,75
2017-05-04 09:45;97,65
2017-05-04 10:00;102,5
2017-05-04 10:15;110,2
2017-05-04 10:30;111,6
2017-05-04 10:45;117,7
2017-05-04 11:00;118,1
2017-05-04 11:15;86,7
2017-05-04 11:30;124,65
2017-05-04 11:45;117,55
2017-05-04 12:00;124
2017-05-04 12:15;129,6
2017-05-04 12:30;133,3
2017-05-04 12:45;131,8
2017-05-04 13:00;132,5
2017-05-04 13:15;134
2017-05-04 13:30;136
2017-05-04 13:45;133,55
2017-05-04 14:00;133,6
2017-05-04 14:15;130,9
2017-05-04 14:30;129,35
2017-05-04 14:45;128,25
2017-05-04 15:00;122,5
2017-05-04 15:15;116,45
2017-05-04 15:30;113,95
2017-05-04 15:45;112,25
2017-05-04 16:00;114,25
2017-05-04 16:15;106,75
2017-05-04 16:30;112,9
2017-05-04 16:45;108,25
2017-05-04 17:00;107,6
2017-05-04 17:15;105,2
2017-05-04 17:30;99,7
2017-05-04 17:45;103
2017-05-04 18:00;104,75
2017-05-04 18:15;98,7
2017-05-04 18:30;99,9
2017-05-04 18:45;96
2017-05-04 19:00;97,9
2017-05-04 19:15;96,15
2017-05-04 19:30;93,8
2017-05-04 19:45;98,15
2017-05-04 20:00;95,7
2017-05-04 20:15;99
2017-05-04 20:30;103,05
2017-05-04 20:45;101,65
2017-05-04 21:00;100,7
2017-05-04 21:15;95,5
2017-05-04 21:30;95,8
2017-05-04 21:45;95,3
2017-05-04 22:00;90,4
2017-05-04 22:15;88,45
2017-05-04 22:30;86,85
2017-05-04 22:45;85
2017-05-04 23:00;86,2
2017-05-04 23:15;85,15
2017-05-04 23:30;82,35
2017-05-04 23:45;80,95
2017-05-05 00:00;81,65
2017-05-05 00:15;80,5
2017-05-05 00:30;79,35
2017-05-05 00:45;78,35
2017-05-05 01:00;77,1
2017-05-05 01:15;78,6
2017-05-05 01:30;78,4
2017-05-05 01:45;75,5
2017-05-05 02:00;75,5
2017-05-05 02:15;73,7
2017-05-05 02:30;71
2017-05-05 02:45;71,65
2017-05-05 03:00;72,9
2017-05-05 03:15;72,05
2017-05-05 03:30;72,35
2017-05-05 03:45;73,9
2017-05-05 04:00;73,05
2017-05-05 04:15;71
2017-05-05 04:30;73,4
2017-05-05 04:45;71,75
2017-05-05 05:00;71,85
2017-05-05 05:15;77,8
2017-05-05 05:30;79,55
2017-05-05 05:45;85,3
2017-05-05 06:00;83,95
2017-05-05 06:15;83,35
2017-05-05 06:30;80,35
2017-05-05 06:45;75,5
2017-05-05 07:00;77,35
2017-05-05 07:15;76,75
2017-05-05 07:30;77,3
2017-05-05 07:45;76,2
2017-05-05 08:00;79,3
2017-05-05 08:15;78,4
2017-05-05 08:30;81,4
2017-05-05 08:45;85,2
2017-05-05 09:00;88
2017-05-05 09:15;92,4
2017-05-05 09:30;97,7
2017-05-05 09:45;97,5
2017-05-05 10:00;100,5
2017-05-05 10:15;106,9
2017-05-05 10:30;109
2017-05-05 10:45;110,9
2017-05-05 11:00;130,05
2017-05-05 11:15;139,2
2017-05-05 11:30;148,95
2017-05-05 11:45;140,7
2017-05-05 12:00;142,2
2017-05-05 12:15;149
2017-05-05 12:30;144,35
2017-05-05 12:45;150,8
2017-05-05 13:00;153,75
2017-05-05 13:15;150,05
2017-05-05 13:30;152,75
2017-05-05 13:45;153,6
2017-05-05 14:00;151,8
2017-05-05 14:15;151,95
2017-05-05 14:30;151,9
2017-05-05 14:45;149,25
2017-05-05 15:00;142,65
2017-05-05 15:15;138
2017-05-05 15:30;141,15
2017-05-05 15:45;142,5
2017-05-05 16:00;137
2017-05-05 16:15;131,1
2017-05-05 16:30;128,5
2017-05-05 16:45;127,3
2017-05-05 17:00;127,55
2017-05-05 17:15;126,65
2017-05-05 17:30;136
2017-05-05 17:45;132
2017-05-05 18:00;121,55
2017-05-05 18:15;118,4
2017-05-05 18:30;117,25
2017-05-05 18:45;114,85
2017-05-05 19:00;109,85
2017-05-05 19:15;101,5
2017-05-05 19:30;101,95
2017-05-05 19:45;102,95
2017-05-05 20:00;96,95
2017-05-05 20:15;102,8
2017-05-05 20:30;100,85
2017-05-05 20:45;103,6
2017-05-05 21:00;101,9
2017-05-05 21:15;99,95
2017-05-05 21:30;102,15
2017-05-05 21:45;103,25
2017-05-05 22:00;91,35
2017-05-05 22:15;92,15
2017-05-05 22:30;89,45
2017-05-05 22:45;89
2017-05-05 23:00;90,35
2017-05-05 23:15;85,05
2017-05-05 23:30;83,25
2017-05-05 23:45;89,75
2017-05-06 00:00;89,2
2017-05-06 00:15;87,65
2017-05-06 00:30;87,3
2017-05-06 00:45;86,1
2017-05-06 01:00;84,35
2017-05-06 01:15;80,6
2017-05-06 01:30;81,4
2017-05-06 01:45;78,8
2017-05-06 02:00;78,75
2017-05-06 02:15;80,7
2017-05-06 02:30;77,85
2017-05-06 02:45;77,65
2017-05-06 03:00;79,95
2017-05-06 03:15;78,55
2017-05-06 03:30;80,25
2017-05-06 03:45;81,15
2017-05-06 04:00;79,75
2017-05-06 04:15;78,95
2017-05-06 04:30;82,85
2017-05-06 04:45;82,1
2017-05-06 05:00;81,25
2017-05-06 05:15;83,65
2017-05-06 05:30;81,45
2017-05-06 05:45;83,9
2017-05-06 06:00;88,65
2017-05-06 06:15;85,35
2017-05-06 06:30;83,25
2017-05-06 06:45;80,9
2017-05-06 07:00;79,2
2017-05-06 07:15;77,9
2017-05-06 07:30;73,6
2017-05-06 07:45;75,4
2017-05-06 08:00;80,15
2017-05-06 08:15;79
2017-05-06 08:30;74,95
2017-05-06 08:45;78,75
2017-05-06 09:00;79,2
2017-05-06 09:15;77,05
2017-05-06 09:30;79,15
2017-05-06 09:45;84,9
2017-05-06 10:00;80,6
2017-05-06 10:15;83,6
2017-05-06 10:30;83,35
2017-05-06 10:45;80,5
2017-05-06 11:00;87,5
2017-05-06 11:15;77,4
2017-05-06 11:30;80,65
2017-05-06 11:45;80,75
2017-05-06 12:00;81,2
2017-05-06 12:15;81,6
2017-05-06 12:30;77,35
2017-05-06 12:45;80,25
2017-05-06 13:00;79,8
2017-05-06 13:15;77,85
2017-05-06 13:30;86,8
2017-05-06 13:45;88,05
2017-05-06 14:00;84,75
2017-05-06 14:15;85,75
2017-05-06 14:30;80,65
2017-05-06 14:45;86,2
2017-05-06 15:00;81,15
2017-05-06 15:15;83,05
2017-05-06 15:30;86,75
2017-05-06 15:45;84,85
2017-05-06 16:00;86,4
2017-05-06 16:15;86,15
2017-05-06 16:30;85,05
2017-05-06 16:45;88,95
2017-05-06 17:00;82,3
2017-05-06 17:15;84,9
2017-05-06 17:30;86,4
2017-05-06 17:45;81,35
2017-05-06 18:00;85,45
2017-05-06 18:15;83,5
2017-05-06 18:30;85,1
2017-05-06 18:45;86,95
2017-05-06 19:00;84,9
2017-05-06 19:15;86,45
2017-05-06 19:30;84,8
2017-05-06 19:45;85,7
2017-05-06 20:00;91,9
2017-05-06 20:15;92,05
2017-05-06 20:30;100,1
2017-05-06 20:45;101,4
2017-05-06 21:00;97,4
2017-05-06 21:15;95,15
2017-05-06 21:30;96,2
2017-05-06 21:45;96,7
2017-05-06 22:00;93,45
2017-05-06 22:15;94,2
2017-05-06 22:30;93,05
2017-05-06 22:45;91,05
2017-05-06 23:00;92,1
2017-05-06 23:15;90,35
2017-05-06 23:30;88,7
2017-05-06 23:45;88,55
2017-05-07 00:00;89,7
2017-05-07 00:15;88,05
2017-05-07 00:30;88,25
2017-05-07 00:45;87,55
2017-05-07 01:00;85,9
2017-05-07 01:15;85,95
2017-05-07 01:30;86,25
2017-05-07 01:45;83,25
2017-05-07 02:00;81,1
2017-05-07 02:15;82,15
2017-05-07 02:30;81,2
2017-05-07 02:45;82,55
2017-05-07 03:00;81,45
2017-05-07 03:15;82,2
2017-05-07 03:30;82,2
2017-05-07 03:45;83,6
2017-05-07 04:00;82,7
2017-05-07 04:15;81,5
2017-05-07 04:30;83,65
2017-05-07 04:45;83,25
2017-05-07 05:00;81,45
2017-05-07 05:15;85,9
2017-05-07 05:30;85,25
2017-05-07 05:45;88,85
2017-05-07 06:00;91,85
2017-05-07 06:15;90,1
2017-05-07 06:30;83,5
2017-05-07 06:45;85,95
2017-05-07 07:00;82,05
2017-05-07 07:15;79,85
2017-05-07 07:30;76,1
2017-05-07 07:45;73,4
2017-05-07 08:00;74,65
2017-05-07 08:15;72,7
2017-05-07 08:30;71,9
2017-05-07 08:45;73,95
2017-05-07 09:00;73,85
2017-05-07 09:15;72,1
2017-05-07 09:30;74,3
2017-05-07 09:45;74,9
2017-05-07 10:00;74,45
2017-05-07 10:15;81,1
2017-05-07 10:30;77
2017-05-07 10:45;80,9
2017-05-07 11:00;93,05
2017-05-07 11:15;79,65
2017-05-07 11:30;82,95
2017-05-07 11:45;79,75
2017-05-07 12:00;77,75
2017-05-07 12:15;78,45
2017-05-07 12:30;78,35
2017-05-07 12:45;81
2017-05-07 13:00;79,4
2017-05-07 13:15;80,5
2017-05-07 13:30;77,65
2017-05-07 13:45;85,45
2017-05-07 14:00;81,1
2017-05-07 14:15;80,55
2017-05-07 14:30;83,3
2017-05-07 14:45;80,9
2017-05-07 15:00;85,35
2017-05-07 15:15;90,4
2017-05-07 15:30;84,9
2017-05-07 15:45;82,5
2017-05-07 16:00;85,95
2017-05-07 16:15;84,05
2017-05-07 16:30;81,6
2017-05-07 16:45;91,2
2017-05-07 17:00;92
2017-05-07 17:15;88,4
2017-05-07 17:30;87,55
2017-05-07 17:45;91,05
2017-05-07 18:00;88,65
2017-05-07 18:15;82,7
2017-05-07 18:30;81,1
2017-05-07 18:45;85,75
2017-05-07 19:00;85,55
2017-05-07 19:15;82,7
2017-05-07 19:30;82,3
2017-05-07 19:45;85,95
2017-05-07 20:00;87,8
2017-05-07 20:15;87,1
2017-05-07 20:30;88,6
2017-05-07 20:45;94,25
2017-05-07 21:00;89,25
2017-05-07 21:15;93,4
2017-05-07 21:30;92,85
2017-05-07 21:45;92,75
2017-05-07 22:00;92
2017-05-07 22:15;87,9
2017-05-07 22:30;86,95
2017-05-07 22:45;85,75
2017-05-07 23:00;88
2017-05-07 23:15;85,35
2017-05-07 23:30;83
2017-05-07 23:45;84

